Regional Weather Roundup
Issued by NWS

Home | Current Version | Previous Version | Text Only | Print | Product List | Glossary On
Versions: 1 2 3 4 5 6 7 8 9 10 11 12 13 14 15 16 17 18 19 20 21 22 23 24 25 26 27 28 29 30 31 32 33 34 35 36 37 38 39 40 41 42 43 44 45 46 47 48 49 50
000
ASUS43 KLSX 292359
RWRMO

WEATHER SUMMARY FOR MISSOURI
NATIONAL WEATHER SERVICE SPRINGFIELD MO
700 PM CDT FRI AUG 29 2014

NOTE: "FAIR" INDICATES FEW OR NO CLOUDS BELOW 12,000 FEET WITH NO
       SIGNIFICANT WEATHER AND/OR OBSTRUCTIONS TO VISIBILITY.
       CURRENT SKY AND/OR WEATHER CONDITIONS ARE NOT AVAILABLE FOR
       CHILLICOTHE AND FARMINGTON.

MOZ001>031-035>038-043-044-053-054-300100-
...NORTHERN AND WESTERN MISSOURI...

CITY           SKY/WX    TMP DP  RH WIND       PRES   REMARKS
KANSAS CTY INT NOT AVBL
KANSAS C DTWN  PTCLDY    83  67  58 S10       29.78F
6HR MIN TEMP:  73; 6HR MAX TEMP:  86; 6HR PCP: TRACE;

KIRKSVILLE     MOCLDY    78  71  79 SW9       29.83S
6HR MIN TEMP:  72; 6HR MAX TEMP:  83; 6HR PCP:  0.24;


$$
MOZ066>068-077>081-088>096-101>105-300100-
...SOUTHWEST MISSOURI...

CITY           SKY/WX    TMP DP  RH WIND       PRES   REMARKS
SPRINGFIELD    CLOUDY    84  64  50 W8        29.88S
6HR MIN TEMP:  75; 6HR MAX TEMP:  89; 6HR PCP:  0.05;


$$
MOZ032>034-039>042-045>050-055>058-069>072-300100-
...CENTRAL MISSOURI...

CITY           SKY/WX    TMP DP  RH WIND       PRES   REMARKS
COLUMBIA       MOCLDY    78  73  84 S7        29.85S
6HR MIN TEMP:  72; 6HR MAX TEMP:  92; 6HR PCP:  0.04;

OSAGE BEACH    CLOUDY    77  66  69 SW7       29.85F

$$
MOZ051-052-059>065-300100-
...EAST CENTRAL MISSOURI...

CITY           SKY/WX    TMP DP  RH WIND       PRES   REMARKS
ST LOUIS INTL  MOCLDY    85  67  54 W12       29.86R
6HR MIN TEMP:  85; 6HR MAX TEMP:  93;

SPIRIT OF STL  CLOUDY    77  69  76 W5        29.85S
6HR MIN TEMP:  77; 6HR MAX TEMP:  90; 6HR PCP: TRACE;

ST CHARLES     MOCLDY    76  71  85 NW6       29.83S
6HR MIN TEMP:  76; 6HR MAX TEMP:  90; 6HR PCP:  0.03;


$$
MOZ072>076-082>087-097>100-106>115-300100-
...SOUTH CENTRAL AND SOUTHEAST MISSOURI...

CITY           SKY/WX    TMP DP  RH WIND       PRES   REMARKS
CAPE GIRARDEAU NOT AVBL
FARMINGTON     PTCLDY    79  66  65 S8        29.92S
6HR MIN TEMP:  79; 6HR MAX TEMP:  91;

WEST PLAINS    MOCLDY    75  67  76 S6        29.94R
6HR MIN TEMP:  73; 6HR MAX TEMP:  90; 6HR PCP:  0.01;


$$


USA.gov is the U.S. government's official web portal to all federal, state and local government web resources and services.